STARLINK-32851, 62810

Orbit data source: Space-Track

STARLINK-32851, 62810 is a payload satellite owned by SpaceX/Seattle (US) in LEO that was launched on Fri, 24 Jan 2025 UTC via an FALCON 9 launch vehicle from the Air Force Western Test Range (AFWTR). Payload-class satellites include a variety of spacecraft equipped with specific instruments for various scientific and technological missions. These include communications satellites like Starlink; space stations such as the ISS; scientific satellites like the Hubble; Earth observation satellites from companies like Planet Labs, Umbra, and HawkEye 360; GPS; miniature CubeSats for education and research; and military/defense satellites.

Loading next visibility...
Identifier
62810, 2025-018E
Orbit
LEO
Country
Flag of USUS
Related business
Manufacturer
SpaceX/Seattle
Mission
Operational Commercial Communications
Bus & Motor
STARLINK V2M, Unknown motor
Mass
730 kg wet, ~700 kg dry
Launch date (UTC)
2025-01-24 (9 months ago)
Launch vehicle
FALCON 9
Launch site
Air Force Western Test Range (AFWTR)
Object type
Payload
Rocket body
Debris
Shape & HBR
Box + 2 Pan, 17.7 m
Radar Cross Section
33.884 m², Large (>1 m²)

Expand to show TLE details & history
Last TLE update: 8 hours ago

TLE from 8 hours ago
0 STARLINK-32851
1 62810U 25018E   25292.89965077  .00065530  00000-0  22046-2 0  9999
2 62810  53.1588 243.4964 0000982 107.5827 252.5281 15.30208555 41611
Epoch: 2025-10-19T21:35Z
TLE epoch observation values (Epoch: 2025-10-19T21:35:29.826Z)
Latitude
-0.00003°
Longitude
-108.98759°
Altitude
476.291 km
Speed
7.629 km/s
True Right ascension
16h 13m 59s
True Declination
0° 00' 00"
Sunlit
Object was in daylight at epoch
Visualization orbit readout
Latitude
Unknown
Longitude
Unknown
Altitude
Unknown
Speed
Unknown
Apparent Right ascension
Unknown
Apparent Declination
Unknown
Sunlit
N/A
Visualization observer readout
Local Sidereal Time
00:01:45
Azimuth
Unknown
Elevation
Unknown
Doppler factor
Unknown
Orbital elements
Apogee altitude
476.119 km
Perigee altitude
474.773 km
Semi-major axis
6,853.583 km
Eccentricity
0.0001
Inclination
53.1588°
RAAN
243.4964°
Arg. of periapsis
107.5827°
True anomaly
252.51737°
Mean anomaly
252.5281°
Eccentric anomaly
252.52273°
Mean motion
3.82531 °/min
Orbital period
94.11 mins
BSTAR
0.0022046
Loading maneuver chart data...
Computing Atmospheric mass density...
Loading historical data...
Loading historical data...
Loading historical data...
Loading historical data...
Loading historical data...
Loading historical data...
Loading historical data...

Documentation

Showing up to 5 results
|